{"data":{"norad_id":68245,"epoch":"2026-05-24T15:37:25.684608Z","epoch_age_seconds":108677,"freshness":"FRESH","line1":"1 68245U 26054P   26144.65099172  .00037914  00000+0  68573-3 0  9993","line2":"2 68245  53.1572 300.3713 0000563  29.8309 330.2732 15.49338163 10679","mean_motion":15.49338163,"eccentricity":5.63e-5,"inclination_deg":53.1572,"raan_deg":300.3713,"arg_perigee_deg":29.8309,"mean_anomaly_deg":330.2732,"bstar":0.00068573,"rev_number":1067,"period_min":92.942911650205,"perigee_km":418.27833103008,"apogee_km":419.04365048384,"semimajor_km":6796.797990757,"source":"CELESTRAK","updated_at":"2026-05-25T13:38:21.885792Z"}}